Observations for Trim Market St
| Time | AQI | Temp °C | Hum % | Pres Pa | CO μg/m³ | H₂S μg/m³ | NO μg/m³ | NO₂ μg/m³ | O₃ μg/m³ | SO₂ μg/m³ | PM1 μg/m³ | PM2.5 μg/m³ | PM10 μg/m³ |
|---|---|---|---|---|---|---|---|---|---|---|---|---|---|
| Thursday 16 July 2026 | |||||||||||||
| 08:13 | 1 | 28.5 | 49 | 56,947 | 0.16 | 0 | 0 | 0 | 0 | 0 | 6.41 | 10.77 | 15.06 |
| 08:12 | 1 | 28.5 | 49 | 56,698 | 0.16 | 0 | 0 | 0 | 0 | 0 | 6.41 | 11.27 | 15.04 |
| 08:10 | 1 | 28.4 | 50 | 56,353 | 0.27 | 0 | 0 | 0 | 0 | 0 | 8.55 | 13.27 | 18.73 |
| 08:09 | 1 | 28.3 | 50 | 55,836 | 0.27 | 0 | 0 | 0 | 0 | 0 | 6.41 | 9.13 | 12.74 |
| 08:07 | 1 | 28.1 | 51 | 56,036 | 0.31 | 0 | 0 | 0 | 0 | 0 | 7.13 | 10.63 | 14.2 |
| 08:06 | 1 | 28 | 51 | 56,137 | 0.34 | 0 | 0 | 0 | 0 | 0 | 5.7 | 9.59 | 12.71 |
| 08:05 | 1 | 27.9 | 51 | 56,175 | 0.36 | 0 | 0 | 0 | 0 | 0 | 7.84 | 14.2 | 20.08 |
| 08:04 | 1 | 27.8 | 51 | 56,309 | 0.33 | 0 | 0 | 0 | 0 | 0 | 6.41 | 10.08 | 15.64 |
| 08:03 | 1 | 27.7 | 52 | 56,455 | 0.34 | 0 | 0 | 0 | 0 | 0 | 9.26 | 12.1 | 17.08 |
| 07:59 | 1 | 27.3 | 53 | 56,859 | 0.37 | 0 | 0 | 0 | 0 | 0 | 6.41 | 10.48 | 16.25 |
| 07:58 | 1 | 27.1 | 54 | 56,959 | 0.39 | 0 | 0 | 0 | 0 | 0 | 6.41 | 9.95 | 14.05 |
| 07:57 | 1 | 27 | 54 | 57,135 | 0.4 | 0 | 0 | 0 | 0 | 0 | 7.13 | 10.44 | 14.76 |
| 07:56 | 1 | 26.8 | 54 | 57,275 | 0.33 | 0 | 0 | 0 | 0 | 0 | 4.99 | 7.87 | 11.85 |
| 07:55 | 1 | 26.7 | 55 | 57,375 | 0.4 | 0 | 0 | 0 | 0 | 0 | 7.84 | 14.44 | 19.73 |
| 07:54 | 1 | 26.5 | 56 | 57,640 | 0.47 | 0 | 0 | 0 | 0 | 0 | 7.13 | 10.83 | 14.66 |
| 07:53 | 1 | 26.3 | 56 | 57,731 | 0.42 | 0 | 0 | 0 | 0 | 0 | 6.41 | 10.3 | 14.63 |
| 07:52 | 1 | 26.2 | 56 | 57,747 | 0.43 | 0 | 0 | 0 | 0 | 0 | 7.13 | 9.77 | 13.9 |
| 07:51 | 1 | 26 | 57 | 57,751 | 0.45 | 0 | 0 | 0 | 0 | 0 | 6.41 | 8.72 | 11.76 |
| 07:50 | 1 | 25.9 | 57 | 57,743 | 0.45 | 0 | 0 | 0.48 | 0 | 0 | 7.84 | 11.22 | 15.26 |
| 07:48 | 1 | 25.5 | 58 | 57,724 | 1.68 | 0 | 2.35 | 5.99 | 0 | 0 | 9.98 | 12.68 | 18 |